This demonstration page uses our WeatherBlox Daily Observations layout. Learn more.

Left ArrowRight Arrow

Hourly Observations for January 30, 2016

Temp ( °F °C ) Dew Point ( °F °C ) Humidity (%) Winds ( mph kmh ) Pressure ( in mb ) Visibility ( mi km ) Precip ( " mm )
12:51 am 00:51 Clear 40 4.4 23 -5 51 51 VRB 3 6 29.97 1015 10 16 0.00 0.00
1:51 am 01:51 Clear 38 3.3 22 -5.6 52 52 Calm 29.97 1015 10 16 0.00 0.00
2:51 am 02:51 Clear 34 1.1 22 -5.6 61 61 ESE 6 9 29.96 1015 10 16 0.00 0.00
3:51 am 03:51 Clear 35 1.7 22 -5.6 59 59 SE 7 11 29.94 1014 10 16 0.00 0.00
4:51 am 04:51 Clear 35 1.7 21 -6.1 57 57 SE 3 6 29.95 1014 10 16 0.00 0.00
5:51 am 05:51 Clear 33 0.6 21 -6.1 61 61 Calm 29.97 1015 10 16 0.00 0.00
6:51 am 06:51 Clear 32 0 21 -6.1 64 64 ENE 3 6 29.99 1016 10 16 0.00 0.00
7:51 am 07:51 Sunny 33 0.6 22 -5.6 64 64 Calm 30.01 1016 10 16 0.00 0.00
8:51 am 08:51 Sunny 41 5 21 -6.1 45 45 SE 6 9 30.01 1016 10 16 0.00 0.00
9:51 am 09:51 Sunny 48 8.9 22 -5.6 36 36 SE 5 7 29.99 1016 10 16 0.00 0.00
10:51 am 10:51 Sunny 55 12.8 22 -5.6 28 28 VRB 3 6 29.96 1015 10 16 0.00 0.00
11:51 am 11:51 Sunny 61 16.1 19 -7.2 20 20 Calm 29.94 1014 10 16 0.00 0.00
12:51 pm 12:51 Sunny 65 18.3 19 -7.2 17 17 VRB 7 11 29.89 1012 10 16 0.00 0.00
1:51 pm 13:51 Sunny 67 19.4 21 -6.1 17 17 VRB 7 11 29.85 1011 10 16 0.00 0.00
2:51 pm 14:51 Sunny 70 21.1 23 -5 17 17 WNW 13 20 29.83 1010 10 16 0.00 0.00
3:51 pm 15:51 Sunny 71 21.7 24 -4.4 17 17 WNW 12 19 29.82 1010 10 16 0.00 0.00
4:51 pm 16:51 Sunny 69 20.6 26 -3.3 20 20 NW 16 26 29.82 1010 10 16 0.00 0.00
5:51 pm 17:51 Clear 65 18.3 26 -3.3 23 23 NW 14 22 29.85 1011 10 16 0.00 0.00
6:51 pm 18:51 Clear 61 16.1 26 -3.3 26 26 NW 14 22 29.86 1011 10 16 0.00 0.00
7:51 pm 19:51 Clear 61 16.1 27 -2.8 27 27 NNW 15 24 29.86 1011 10 16 0.00 0.00
8:51 pm 20:51 Clear 60 15.6 27 -2.8 28 28 NNW 13 20 29.86 1011 10 16 0.00 0.00
9:51 pm 21:51 Clear 61 16.1 27 -2.8 27 27 NW 10 17 29.88 1012 10 16 0.00 0.00
10:51 pm 22:51 Clear 58 14.4 28 -2.2 32 32 NNW 12 19 29.88 1012 10 16 0.00 0.00
11:51 pm 23:51 Clear 53 11.7 28 -2.2 38 38 SSW 8 13 29.88 1012 10 16 0.00 0.00

Powered by AerisWeather